Home   Weather   Eureka   Past weeks

Flag for Canada Past Weather in Eureka, Nunavut, Canada — Yesterday and Last 2 Weeks

-6 °F


Feels Like: -19 °F
Forecast: -8 / 1 °F
Wind: 6 mph from Southeast

Location: Eureka

Current Time: Oct 21, 2016 at 11:49:05 AM

Latest Report: Oct 21, 2016 at 11:00 AM

Visibility: 10 mi

Pressure: 29.99 "Hg

Humidity: 77%

Dew Point: -11 °F

Location of EurekaLocation

Past Weather in Eureka — Graph


Eureka Temperature Yesterday

Maximum temperature yesterday: 0 °F (at 1:00 AM)
Minimum temperature yesterday: -11 °F (at 7:00 PM)
Average temperature yesterday: -7 °F

High & Low Weather Summary for the Past Weeks

High23 °F (Oct 6, 10:00 AM)93% (Oct 6, 6:00 PM)30.10 "Hg (Oct 6, 6:00 PM)
Low-22 °F (Oct 17, 6:00 PM)68% (Oct 17, 8:00 PM)29.62 "Hg (Oct 6, 12:00 PM)
Average-1 °F81%29.93 "Hg
* Reported Oct 6 10:00 AM — Oct 21 10:00 AM, Eureka, Weather by CustomWeather, © 2016

Note: Actual official high and low records may vary slightly from our data, if they occured in-between our weather recording intervals... More about our weather records


Eureka Weather History for the Previous 24 Hours

Scroll right to see more
Time TempWeatherWind HumidityBarometerVisibility
10:00 AM
Fri, Oct 21
-6 °FLow clouds.14 mph84%29.98 "Hg10 mi
9:00 AM-6 °FOvercast.10 mph77%29.98 "Hg10 mi
8:00 AM-4 °FOvercast.8 mph77%29.98 "Hg10 mi
7:00 AM-4 °FIce fog.9 mph77%29.97 "Hg5 mi
6:00 AM-4 °FIce fog.5 mph77%29.97 "Hg5 mi
5:00 AM-6 °FIce fog.5 mph77%29.97 "Hg2 mi
4:00 AM-6 °FIce fog.6 mph77%29.96 "Hg1 mi
3:00 AM-8 °FIce fog.3 mph84%29.95 "Hg1 mi
2:00 AM-8 °FIce fog.2 mph77%29.93 "Hg1 mi
1:00 AM-8 °FIce fog.2 mph77%29.92 "Hg1 mi
10:00 PM
Thu, Oct 20
-9 °FLight snow. Ice fog.6 mph77%29.90 "Hg6 mi
9:00 PM-9 °FLight snow. Ice fog.7 mph77%29.90 "Hg3 mi
8:00 PM-11 °FLight snow. Ice fog.7 mph76%29.89 "Hg1 mi
7:00 PM-11 °FLight snow. Ice fog.8 mph76%29.88 "Hg1 mi
6:00 PM-9 °FLight snow. Ice fog.8 mph77%29.87 "Hg3 mi
5:00 PM-9 °FIce fog.7 mph77%29.86 "Hg2 mi
4:00 PM-9 °FIce fog.8 mph77%29.85 "Hg1 mi
3:00 PM-8 °FIce fog.7 mph77%29.85 "Hg1 mi
2:00 PM-8 °FIce fog.7 mph77%29.84 "Hg1 mi
1:00 PM-8 °FIce fog.6 mph77%29.83 "Hg1 mi
12:00 PM-9 °FIce fog.3 mph77%29.83 "Hg0 mi
11:00 AM-9 °FIce fog.3 mph77%29.85 "Hg1 mi
Weather by CustomWeather, © 2016

See weather overviewHow to use our weather pages